This demonstration page uses our WeatherBlox Daily Observations layout. Learn more.

Left ArrowRight Arrow

Hourly Observations for November 13, 2019

Temp ( °F °C ) Dew Point ( °F °C ) Humidity (%) Winds ( mph kmh ) Pressure ( in mb ) Visibility ( mi km ) Precip ( " mm )
12:56 am 00:56 Clear 27 -2.8 15 -9.4 61 61 SSW 10 17 29.93 1014 10 16 0.00 0.00
1:56 am 01:56 Clear 26 -3.3 15 -9.4 63 63 S 12 19 29.90 1012 10 16 0.00 0.00
2:56 am 02:56 Clear 27 -2.8 15 -9.4 61 61 S 12 19 29.86 1011 10 16 0.00 0.00
3:56 am 03:56 Clear 28 -2.2 14 -10 56 56 SSW 9 15 29.86 1011 10 16 0.00 0.00
4:56 am 04:56 Clear 28 -2.2 16 -8.9 60 60 SSW 6 9 29.86 1011 10 16 0.00 0.00
5:56 am 05:56 Clear 27 -2.8 17 -8.3 66 66 S 5 7 29.86 1011 10 16 0.00 0.00
6:56 am 06:56 Clear 27 -2.8 17 -8.3 66 66 SSW 3 6 29.88 1012 10 16 0.00 0.00
7:56 am 07:56 Sunny 27 -2.8 18 -7.8 69 69 NNW 3 6 29.92 1013 10 16 0.00 0.00
8:56 am 08:56 Sunny 29 -1.7 19 -7.2 66 66 NNW 3 6 29.93 1014 10 16 0.00 0.00
9:56 am 09:56 Sunny 39 3.9 24 -4.4 55 55 N 14 22 29.98 1015 10 16 0.00 0.00
10:56 am 10:56 Sunny 43 6.1 32 0 65 65 N 17 28 30.00 1016 10 16 0.00 0.00
11:56 am 11:56 Mostly Sunny 46 7.8 35 1.7 66 66 N 18 30 30.00 1016 10 16 0.00 0.00
12:56 pm 12:56 Partly Cloudy 49 9.4 37 2.8 64 64 N 22 35 29.99 1016 10 16 0.00 0.00
1:07 pm 13:07 Mostly Cloudy 48 9 37 3 66 66 N 20 31 29.97 1015 10 16 0.00 0.00
1:56 pm 13:56 Mostly Cloudy 50 10 36 2.2 59 59 N 22 35 30.00 1016 10 16 0.00 0.00
2:10 pm 14:10 Partly Cloudy 48 9 36 2 62 62 NNW 17 28 29.98 1015 10 16 0.00 0.00
2:56 pm 14:56 Cloudy 49 9.4 35 1.7 59 59 N 23 37 30.02 1017 10 16 0.00 0.00
3:56 pm 15:56 Mostly Cloudy 45 7.2 33 0.6 63 63 N 20 31 30.06 1018 10 16 0.00 0.00
4:56 pm 16:56 Cloudy 43 6.1 31 -0.6 63 63 N 18 30 30.09 1019 10 16 0.00 0.00
5:56 pm 17:56 Mostly Cloudy 40 4.4 30 -1.1 68 68 N 9 15 30.13 1020 10 16 0.00 0.00
6:56 pm 18:56 Cloudy with Light Rain 39 3.9 31 -0.6 73 73 WNW 6 9 30.15 1021 10 16 0.00 0.00
7:56 pm 19:56 Cloudy 40 4.4 32 0 73 73 NW 7 11 30.16 1021 10 16 0.00 0.00
8:56 pm 20:56 Cloudy 41 5 32 0 70 70 NW 9 15 30.17 1022 10 16 0.00 0.00
9:56 pm 21:56 Cloudy 40 4.4 32 0 73 73 NNW 7 11 30.18 1022 10 16 0.00 0.00
10:56 pm 22:56 Clear 36 2.2 30 -1.1 79 79 NW 7 11 30.19 1023 10 16 0.00 0.00
11:56 pm 23:56 Mostly Cloudy 33 0.6 29 -1.7 85 85 NW 5 7 30.21 1023 10 16 0.00 0.00

Powered by AerisWeather